Regional Weather Roundup
Issued by NWS

Home | Current Version | Previous Version | Text Only | Print | Product List | Glossary On
Versions: 1 2 3 4 5 6 7 8 9 10 11 12 13 14 15 16 17 18 19 20 21 22 23 24 25 26 27 28 29 30 31 32 33 34 35 36 37 38 39 40 41 42 43 44 45 46 47 48 49 50
000
ASUS44 KFWD 162115
RWRTX
NORTH TEXAS HOURLY WEATHER ROUNDUP
NATIONAL WEATHER SERVICE FORT WORTH TX
400 PM CDT WED AUG 16 2017

NOTE: "FAIR" INDICATES FEW OR NO CLOUDS BELOW 12,000 FEET WITH NO
SIGNIFICANT WEATHER AND/OR OBSTRUCTIONS TO VISIBILITY.

TXZ118-119-162200-
DALLAS/FORT WORTH METROPLEX

CITY           SKY/WX    TMP DP  RH WIND       PRES   REMARKS
DFW AIRPORT    CLOUDY    94  74  52 SW14      29.87F HX 104
DALLAS LOVE    CLOUDY    92  72  51 S6        29.87F HX  99
FTW MEACHAM    SUNNY     92  76  59 S13G23    29.88F HX 104
DAL-EXECUTIVE  CLOUDY    93  74  53 S9G17     29.88F HX 103
FTW-ALLIANCE   MOSUNNY   92  75  57 S9G21     29.88F HX 103
FTW-NAS-JRB    SUNNY     93  74  53 S17G25    29.88F HX 103
FTW-SPINKS     MOSUNNY   93  73  52 S12G18    29.90F HX 102
ARLINGTON      CLOUDY    93  75  55 S12G20    29.88F HX 104
GRAND PRAIRIE  SUNNY     93  72  49 S12       29.90F HX 100
ADDISON        SUNNY     91  72  52 S8        29.90F HX  98
MESQUITE       PTSUNNY   91  72  52 S12       29.89F HX  98
LANCASTER      PTSUNNY   93  72  49 SW9       29.89F HX 101
$$

TXZ091>094-102>105-117-120-121-131>134-162200-
NORTH CENTRAL TEXAS

CITY           SKY/WX    TMP DP  RH WIND       PRES   REMARKS
SHRMAN/DENISON CLOUDY   N/A N/A N/A S9        29.90F
GAINESVILLE    CLOUDY    90  73  57 SE14      29.90F HX  99
BOWIE          CLOUDY    89  75  63 SE7       29.89S HX  99
BRIDGEPORT     SUNNY     92  73  52 S12G17    29.89F HX 100
DECATUR        CLOUDY    89  74  61 S13G22    29.89F HX  99
DENTON         CLOUDY    92  76  59 S14G25    29.88F HX 104
MCKINNEY       CLOUDY    90  75  61 S12       29.89F HX 100
BONHAM         CLOUDY    90  73  58 S13G18    29.90F HX  98
GREENVILLE     MOSUNNY   93  72  49 S10G17    29.90F HX 100
ROCKWALL       PTSUNNY   93  73  51 S10G24    29.89F HX 102
TERRELL        RAIN      95  70  44 S17       29.89F HX 101
WAXAHACHIE     CLOUDY    92  73  53 S13G18    29.90F HX 101
CLEBURNE       PTSUNNY   93  75  55 SW10      29.91F HX 104
GRANBURY       MOSUNNY   93  73  51 S14       29.90S HX 102
$$

TXZ083>090-098>101-113>116-127>130-139>142-154-155-162200-
WESTERN NORTH TEXAS

CITY           SKY/WX    TMP DP  RH WIND       PRES   REMARKS
WICHITA FALLS  MOSUNNY   93  74  53 S14       29.84F HX 103
WF-KICKAPOO    MOSUNNY   94  75  54 S15       29.87F HX 105
VERNON         MOSUNNY   94  67  41 SW13      29.85F HX  98
ABILENE        MOSUNNY   91  74  57 S14       29.90F HX 100
ABILENE-DYESS  MOSUNNY   94  73  51 S14       29.88F HX 102
GRAHAM         MOSUNNY   95  72  47 S8G17     29.85F HX 103
BRECKENRIDGE   PTSUNNY   95  69  42 S9        29.87F HX 100
CISCO          PTSUNNY   91  73  55 S10G18    29.91F HX 100
EASTLAND       MOSUNNY   91  74  57 S13       29.89F HX  99
RANGER         MOSUNNY   90  73  57 S10G17    29.90F HX  97
MINERAL WELLS  MOSUNNY   92  74  55 S17       29.87F HX 101
STEPHENVILLE   SUNNY     91  73  57 S10G16    29.94F HX  99
COMANCHE       SUNNY     95  72  46 S14G22    29.90F HX 103
BROWNWOOD      CLOUDY    93  72  49 S10G18    29.91F HX 100
COLEMAN        SUNNY     92  71  50 S12G21    29.91F HX  99
$$

TXZ143>147-156>162-174-175-162200-
CENTRAL TEXAS

CITY           SKY/WX    TMP DP  RH WIND       PRES   REMARKS
WACO           SUNNY     97  72  44 S18       29.88F HX 105
WACO-TSTC      MOSUNNY   99  68  36 S18       29.88F HX 104
WACO-MCGREGOR  SUNNY     99  71  40 S16       29.89F HX 107
HILLSBORO      MOSUNNY   95  73  47 S13G21    29.89F HX 104
CORSICANA      MOSUNNY   97  71  42 S14       29.90F HX 104
MEXIA          PTSUNNY   98  68  37 SW15G26   29.90F HX 104
HEARNE         MOSUNNY   95  70  44 S12G18    29.90F HX 101
CAMERON        MOSUNNY   97  71  42 S14G21    29.89F HX 103
TEMPLE         MOSUNNY   99  70  38 S18G29    29.90F HX 106
KILLEEN        MOSUNNY   94  68  42 S13       29.89F HX  99
KILLEEN-SKYLRK MOSUNNY   97  71  42 S12G17    29.90F HX 104
FORT HOOD      SUNNY     95  70  43 S17       29.87F HX 101
HAMILTON       CLOUDY    91  71  50 S12       29.93F HX  97
LAMPASAS       CLOUDY    92  72  51 S9        29.91F HX  98
$$

TXZ095>097-106>112-122>126-135>138-148>153-164>167-162200-
EAST TEXAS

CITY           SKY/WX    TMP DP  RH WIND       PRES   REMARKS
PARIS          PTSUNNY   92  74  55 S15       29.91F HX 101
SULPHUR SPRNGS SUNNY     94  71  46 SW14      29.93F HX 100
MOUNT PLEASANT SUNNY     92  71  51 S8        29.93F HX  98
GILMER         MOSUNNY   92  72  52 S8G16     29.93F HX  99
MINEOLA        MOSUNNY   93  73  52 S10       29.91F HX 102
TYLER          MOSUNNY   94  70  45 S15       29.92F HX 100
LONGVIEW       MOSUNNY   94  75  54 S10       29.92F HX 105
MARSHALL         N/A     92  76  60 S3        29.96S HX 104
ATHENS         MOSUNNY   93  68  43 S12G20    29.90F HX  97
PALESTINE      MOSUNNY   98  71  41 S9G16     29.92F HX 105
JACKSONVILLE   MOSUNNY   93  71  48 S9        29.96F HX 100
HENDERSON      PTSUNNY   93  73  52 S9        29.95S HX 101
CENTER         PTCLDY    97  74  48 S5G10     29.96S HAZE    HX 108
LUFKIN         MOSUNNY   95  73  48 S9        29.93F HX 104
$$

SUPPLEMENTAL OBSERVATIONS (NWS FORT WORTH AREA)

CITY           SKY/WX    TMP DP  RH WIND       PRES   REMARKS
DENISON DAM      N/A     88  73  62 SW5         N/A  HX  96
CADDO GRASSLND   N/A     91  72  52 S13         N/A  HX  98
PAT MAYSE LAKE   N/A     90  77  66 SE14        N/A  HX 102
GREENVILLE       N/A     91  72  52 S8G17       N/A  HX  98
CEDAR HILL       N/A     93  73  52 SW7G15      N/A  HX 102
LBJ GRASSLAND    N/A     91  75  59 SE10        N/A  HX 102
POSSUM KINGDOM   N/A     93  72  49 S13         N/A  HX 100
GRANBURY         N/A     93  73  52 S16         N/A  HX 102
COMANCHE         N/A     95  70  43 S14G23      N/A  HX 101
MCGREGOR         N/A     99  68  36 S13G21      N/A  HX 104
TEMPLE           N/A     97  66  36 S13G24      N/A  HX 100
LAKE LIMESTONE   N/A     99  64  32 S13         N/A  HX 101
ATHENS           N/A     95  68  41 S12G20      N/A  HX  99
$$

SUPPLEMENTAL OBSERVATIONS (NWS NORMAN AREA)

CITY           SKY/WX    TMP DP  RH WIND       PRES   REMARKS
GOODLETT         N/A     95  67  39 S9        29.84  HX  99
ODELL            N/A     92  75  57 S12       29.86  HX 103
CROWELL          N/A     95  73  48 S12       29.86  HX 104
KNOX CITY        N/A     95  69  41 S13       29.86  HX 100
SEYMOUR          N/A     94  70  45 S12       29.86  HX 101
MILLERS CREEK    N/A     93  73  52 S12         N/A  HX 102
$$

SUPPLEMENTAL OBSERVATIONS (NWS SAN ANGELO AREA)

CITY           SKY/WX    TMP DP  RH WIND       PRES   REMARKS
WEINERT          N/A     93  74  53 S12       29.87  HX 103
HASKELL          N/A     93  67  42 S10       29.87  HX  96
THROCKMORTON     N/A     95  75  52 S7        29.88  HX 107
STAMFORD         N/A     95  73  49 SW12      29.88  HX 104
CLYDE            N/A     91  74  57 S13       29.92  HX  99
HAMBY            N/A     93  72  49 S14         N/A  HX 100
IVIE RESERVOIR   N/A     91  72  52 S14         N/A  HX  98
COLORADO BEND    N/A     93  68  43 S9G20       N/A  HX  97
$$

SUPPLEMENTAL OBSERVATIONS (NWS SHREVEPORT AREA)

CITY           SKY/WX    TMP DP  RH WIND       PRES   REMARKS
CLARKSVILLE      N/A     91  73  55 S13         N/A  HX 100
TEXARKANA        N/A     91  75  59 S3          N/A  HX 102
LINDEN           N/A     91  72  52 SW5         N/A  HX  98
CADDO LAKE       N/A     95  75  52 SW5         N/A  HX 107
GILMER           N/A     93  72  49 SW8G16      N/A  HX 100
HENDERSON        N/A     93  73  52 S8G17       N/A  HX 102
LUFKIN           N/A     93  72  49 MISG        N/A  HX 100
N SABINE NF      N/A     97  79  56 MISG        N/A  HX 115
S SABINE NF      N/A     90  77  66 SE3         N/A  HX 102
$$

SUPPLEMENTAL OBSERVATIONS ARE A COLLECTION OF AUTOMATED INSTRUMENTS
THAT ARE MAINTAINED BY A VARIETY OF FEDERAL AND STATE AGENCIES.
CERTAIN ELEMENTS...SUCH AS HUMIDITY VALUES AND SUSTAINED WIND
SPEEDS...MAY BE APPROXIMATED.





USA.gov is the U.S. government's official web portal to all federal, state and local government web resources and services.